EN

Hourly Weather Godzislaw

Today, 16 May, Sunday

Time Temperature Precipitation Wind Pressure Humidity
00:00 +10°C° 0.1 mm 3 mps 740 mmHg 92%
01:00 +10°C° 0 mm 2 mps 740 mmHg 93%
02:00 +10°C° 0 mm 2 mps 740 mmHg 94%
03:00 +10°C° 0 mm 2 mps 740 mmHg 95%
04:00 +10°C° 0 mm 2 mps 740 mmHg 95%
05:00 +10°C° 0.2 mm 2 mps 739 mmHg 93%
06:00 +11°C° 0.2 mm 3 mps 739 mmHg 90%
07:00 +12°C° 0.2 mm 3 mps 739 mmHg 88%
08:00 +12°C° 0.5 mm 3 mps 739 mmHg 85%
09:00 +13°C° 0.5 mm 3 mps 739 mmHg 83%
10:00 +13°C° 0.5 mm 3 mps 740 mmHg 80%
11:00 +14°C° 0.4 mm 3 mps 739 mmHg 75%
12:00 +16°C° 0.4 mm 3 mps 739 mmHg 69%
13:00 +16°C° 0.4 mm 3 mps 739 mmHg 63%
14:00 +16°C° 0.4 mm 3 mps 739 mmHg 66%
15:00 +16°C° 0.4 mm 3 mps 739 mmHg 68%
16:00 +14°C° 0.4 mm 3 mps 739 mmHg 70%
17:00 +13°C° 0.6 mm 3 mps 739 mmHg 76%
18:00 +13°C° 0.6 mm 2 mps 739 mmHg 82%
19:00 +12°C° 0.6 mm 2 mps 739 mmHg 88%
20:00 +10°C° 0 mm 2 mps 739 mmHg 90%
21:00 +9°C° 0 mm 2 mps 739 mmHg 92%
22:00 +8°C° 0 mm 2 mps 739 mmHg 93%
23:00 +8°C° 0 mm 2 mps 739 mmHg 94%

Tomorrow, 17 May, Monday

Time Temperature Precipitation Wind Pressure Humidity
00:00 +8°C° 0 mm 2 mps 739 mmHg 94%
01:00 +8°C° 0 mm 2 mps 739 mmHg 94%
02:00 +7°C° 0 mm 2 mps 739 mmHg 94%
03:00 +7°C° 0 mm 2 mps 739 mmHg 95%
04:00 +7°C° 0 mm 2 mps 739 mmHg 95%
05:00 +8°C° 0 mm 2 mps 739 mmHg 92%
06:00 +10°C° 0 mm 3 mps 740 mmHg 88%
07:00 +11°C° 0 mm 3 mps 740 mmHg 85%
08:00 +13°C° 0 mm 3 mps 740 mmHg 76%
09:00 +14°C° 0 mm 3 mps 740 mmHg 68%
10:00 +16°C° 0 mm 3 mps 740 mmHg 59%
11:00 +16°C° 0.1 mm 3 mps 740 mmHg 59%
12:00 +17°C° 0.1 mm 2 mps 740 mmHg 58%
13:00 +17°C° 0.1 mm 2 mps 740 mmHg 57%
14:00 +15°C° 0.2 mm 2 mps 740 mmHg 66%
15:00 +14°C° 0.2 mm 2 mps 740 mmHg 74%
16:00 +13°C° 0.2 mm 2 mps 740 mmHg 83%
17:00 +13°C° 0.1 mm 2 mps 740 mmHg 86%
18:00 +12°C° 0.1 mm 2 mps 741 mmHg 90%
19:00 +12°C° 0.1 mm 1 mps 741 mmHg 93%
20:00 +11°C° 0 mm 1 mps 741 mmHg 94%
21:00 +11°C° 0 mm 1 mps 741 mmHg 95%
22:00 +10°C° 0 mm 1 mps 741 mmHg 96%
23:00 +10°C° 0 mm 1 mps 741 mmHg 96%

Day after tomorrow, 18 May, Tuesday

Time Temperature Precipitation Wind Pressure Humidity
00:00 +10°C° 0 mm 1 mps 741 mmHg 96%
01:00 +10°C° 0 mm 1 mps 741 mmHg 96%
02:00 +10°C° 0 mm 1 mps 741 mmHg 96%
03:00 +10°C° 0 mm 1 mps 741 mmHg 96%
04:00 +9°C° 0 mm 1 mps 741 mmHg 96%
05:00 +9°C° 0 mm 2 mps 741 mmHg 94%
06:00 +10°C° 0 mm 2 mps 741 mmHg 91%
07:00 +12°C° 0 mm 2 mps 741 mmHg 88%
08:00 +11°C° 0.2 mm 3 mps 741 mmHg 85%
09:00 +12°C° 0.2 mm 3 mps 741 mmHg 81%
10:00 +13°C° 0.2 mm 4 mps 741 mmHg 77%
11:00 +13°C° 0.3 mm 4 mps 742 mmHg 77%
12:00 +13°C° 0.3 mm 4 mps 742 mmHg 77%
13:00 +13°C° 0.3 mm 4 mps 742 mmHg 76%
14:00 +13°C° 0.3 mm 4 mps 742 mmHg 76%
15:00 +13°C° 0.3 mm 4 mps 742 mmHg 76%
16:00 +13°C° 0.3 mm 4 mps 743 mmHg 75%
17:00 +12°C° 0.1 mm 4 mps 743 mmHg 78%
18:00 +11°C° 0.1 mm 3 mps 743 mmHg 82%
19:00 +12°C° 0.1 mm 2 mps 743 mmHg 85%
20:00 +9°C° 0 mm 2 mps 744 mmHg 87%
21:00 +8°C° 0 mm 2 mps 744 mmHg 90%
22:00 +7°C° 0 mm 2 mps 744 mmHg 93%
23:00 +7°C° 0 mm 2 mps 744 mmHg 94%

19 May, Wednesday

Time Temperature Precipitation Wind Pressure Humidity
00:00 +7°C° 0 mm 2 mps 744 mmHg 94%
01:00 +6°C° 0 mm 2 mps 744 mmHg 95%
02:00 +6°C° 0 mm 2 mps 744 mmHg 95%
03:00 +6°C° 0 mm 2 mps 745 mmHg 96%
04:00 +6°C° 0 mm 2 mps 745 mmHg 96%
05:00 +7°C° 0 mm 3 mps 745 mmHg 92%
06:00 +9°C° 0 mm 3 mps 745 mmHg 89%
07:00 +10°C° 0 mm 3 mps 746 mmHg 85%
08:00 +11°C° 0.3 mm 4 mps 746 mmHg 82%
09:00 +11°C° 0.3 mm 4 mps 746 mmHg 79%
10:00 +12°C° 0.3 mm 5 mps 746 mmHg 76%
11:00 +12°C° 0.1 mm 5 mps 746 mmHg 70%
12:00 +13°C° 0.1 mm 5 mps 747 mmHg 64%
13:00 +13°C° 0.1 mm 5 mps 747 mmHg 59%
14:00 +13°C° 0 mm 5 mps 747 mmHg 58%
15:00 +13°C° 0 mm 5 mps 747 mmHg 57%
16:00 +13°C° 0 mm 5 mps 747 mmHg 56%
17:00 +12°C° 0 mm 4 mps 747 mmHg 63%
18:00 +11°C° 0 mm 3 mps 747 mmHg 69%
19:00 +10°C° 0 mm 3 mps 747 mmHg 75%
20:00 +9°C° 0 mm 2 mps 747 mmHg 81%
21:00 +7°C° 0 mm 2 mps 747 mmHg 87%
22:00 +6°C° 0 mm 2 mps 747 mmHg 92%
23:00 +6°C° 0 mm 2 mps 747 mmHg 92%

20 May, Thursday

Time Temperature Precipitation Wind Pressure Humidity
00:00 +6°C° 0 mm 2 mps 747 mmHg 92%
01:00 +5°C° 0 mm 2 mps 747 mmHg 92%
02:00 +5°C° 0 mm 2 mps 747 mmHg 93%
03:00 +5°C° 0 mm 2 mps 747 mmHg 94%
04:00 +5°C° 0 mm 2 mps 747 mmHg 95%
05:00 +7°C° 0 mm 3 mps 747 mmHg 89%
06:00 +8°C° 0 mm 3 mps 748 mmHg 83%
07:00 +10°C° 0 mm 4 mps 748 mmHg 77%
08:00 +11°C° 0.2 mm 4 mps 748 mmHg 73%
09:00 +12°C° 0.2 mm 5 mps 748 mmHg 70%
10:00 +13°C° 0.2 mm 5 mps 748 mmHg 66%
11:00 +13°C° 0.2 mm 5 mps 748 mmHg 62%
12:00 +13°C° 0.2 mm 5 mps 748 mmHg 59%
13:00 +14°C° 0.2 mm 6 mps 748 mmHg 55%
14:00 +13°C° 0.2 mm 5 mps 748 mmHg 57%
15:00 +13°C° 0.2 mm 5 mps 748 mmHg 59%
16:00 +12°C° 0.2 mm 4 mps 748 mmHg 61%
17:00 +12°C° 0.1 mm 4 mps 748 mmHg 67%
18:00 +11°C° 0.1 mm 3 mps 748 mmHg 73%
19:00 +10°C° 0.1 mm 3 mps 747 mmHg 80%
20:00 +9°C° 0.1 mm 3 mps 747 mmHg 85%
21:00 +8°C° 0.1 mm 2 mps 747 mmHg 90%
22:00 +7°C° 0.1 mm 2 mps 747 mmHg 95%
23:00 +5°C° 0 mm 3 mps 747 mmHg 95%

21 May, Friday

Time Temperature Precipitation Wind Pressure Humidity
00:00 +4°C° 0 mm 3 mps 747 mmHg 95%
01:00 +4°C° 0 mm 3 mps 747 mmHg 94%
02:00 +4°C° 0 mm 3 mps 747 mmHg 95%
03:00 +3°C° 0 mm 3 mps 747 mmHg 95%
04:00 +3°C° 0 mm 3 mps 747 mmHg 96%
05:00 +4°C° 0 mm 3 mps 747 mmHg 89%
06:00 +6°C° 0 mm 4 mps 747 mmHg 83%
07:00 +7°C° 0 mm 4 mps 747 mmHg 76%
08:00 +10°C° 0 mm 4 mps 746 mmHg 69%
09:00 +10°C° 0 mm 5 mps 746 mmHg 63%
10:00 +13°C° 0 mm 5 mps 746 mmHg 56%
11:00 +13°C° 0.1 mm 5 mps 746 mmHg 61%
12:00 +12°C° 0.1 mm 4 mps 745 mmHg 66%
13:00 +12°C° 0.1 mm 4 mps 745 mmHg 71%
14:00 +12°C° 0.1 mm 4 mps 744 mmHg 71%
15:00 +12°C° 0.1 mm 3 mps 744 mmHg 72%
16:00 +13°C° 0.1 mm 3 mps 743 mmHg 72%
17:00 +13°C° 0.1 mm 2 mps 743 mmHg 75%
18:00 +13°C° 0.1 mm 2 mps 743 mmHg 78%
19:00 +13°C° 0.1 mm 1 mps 742 mmHg 81%
20:00 +12°C° 0 mm 2 mps 742 mmHg 82%
21:00 +11°C° 0 mm 3 mps 741 mmHg 82%
22:00 +10°C° 0 mm 3 mps 741 mmHg 82%
23:00 +11°C° 0.1 mm 4 mps 741 mmHg 82%
Show more